| time (UTC) | temp F | wind direction | speed knots | gust knots | rain 1hr in | rain 24hr in | rain mn in | humidity % | barometer mb |
| 20260507153537 | 59 | 23 | 4.3 | 13.9 | 0.00 | 0.25 | 0.02 | 52 | 1006.9 |
| 20260507152536 | 60 | 180 | 2.6 | 7.0 | 0.00 | 0.25 | 0.02 | 50 | 1007.0 |
| 20260507151537 | 59 | 225 | 1.7 | 7.0 | 0.00 | 0.25 | 0.02 | 57 | 1007.1 |
| 20260507150516 | 58 | 248 | 3.5 | 10.4 | 0.00 | 0.25 | 0.02 | 56 | 1007.2 |
| 20260507145516 | 60 | 315 | 3.5 | 7.8 | 0.00 | 0.25 | 0.02 | 54 | 1007.3 |
| 20260507144516 | 59 | 225 | 2.6 | 6.1 | 0.00 | 0.25 | 0.02 | 56 | 1007.2 |
| 20260507143517 | 56 | 248 | 1.7 | 7.0 | 0.00 | 0.25 | 0.02 | 62 | 1007.3 |
| 20260507142536 | 57 | 23 | 2.6 | 7.0 | 0.00 | 0.25 | 0.02 | 60 | 1007.2 |
| 20260507141516 | 57 | 270 | 2.6 | 7.8 | 0.00 | 0.25 | 0.02 | 62 | 1007.3 |
| 20260507140537 | 56 | 338 | 1.7 | 3.5 | 0.00 | 0.25 | 0.02 | 65 | 1007.2 |
| 20260507135516 | 55 | 248 | 1.7 | 6.1 | 0.00 | 0.25 | 0.02 | 65 | 1007.1 |
| 20260507134516 | 55 | 225 | 1.7 | 3.5 | 0.00 | 0.25 | 0.02 | 66 | 1007.2 |
| 20260507133516 | 55 | 45 | 0.9 | 5.2 | 0.00 | 0.25 | 0.02 | 66 | 1007.0 |
| 20260507132516 | 55 | 225 | 2.6 | 7.0 | 0.00 | 0.25 | 0.02 | 68 | 1007.2 |
| 20260507131516 | 54 | 225 | 0.9 | 4.3 | 0.00 | 0.25 | 0.02 | 68 | 1007.3 |
| 20260507130536 | 54 | 225 | 1.7 | 5.2 | 0.00 | 0.25 | 0.02 | 72 | 1007.4 |
| 20260507125516 | 53 | 270 | 1.7 | 7.0 | 0.00 | 0.25 | 0.02 | 72 | 1007.5 |
| 20260507124516 | 52 | 270 | 1.7 | 5.2 | 0.00 | 0.25 | 0.02 | 76 | 1007.4 |
| 20260507123516 | 52 | 45 | 2.6 | 7.8 | 0.00 | 0.25 | 0.02 | 74 | 1007.5 |
| 20260507122516 | 52 | 315 | 1.7 | 7.0 | 0.00 | 0.25 | 0.02 | 77 | 1007.6 |
| 20260507121516 | 51 | 45 | 1.7 | 5.2 | 0.00 | 0.25 | 0.02 | 80 | 1007.7 |
| 20260507120516 | 51 | 270 | 1.7 | 6.1 | 0.00 | 0.25 | 0.02 | 80 | 1007.7 |
| 20260507115516 | 50 | 68 | 0.9 | 3.5 | 0.00 | 0.25 | 0.02 | 82 | 1007.7 |
| 20260507114516 | 50 | 23 | 2.6 | 5.2 | 0.00 | 0.25 | 0.02 | 84 | 1007.5 |
| 20260507113536 | 49 | 23 | 0.9 | 2.6 | 0.00 | 0.25 | 0.02 | 87 | 1007.4 |
| 20260507112556 | 48 | 0.0 | 2.6 | 0.00 | 0.25 | 0.02 | 90 | 1007.5 | |
| 20260507111516 | 48 | 0.0 | 3.5 | 0.00 | 0.25 | 0.02 | 90 | 1007.3 | |
| 20260507110516 | 47 | 0.0 | 0.0 | 0.00 | 0.25 | 0.02 | 91 | 1007.3 | |
| 20260507105536 | 47 | 0.0 | 0.0 | 0.00 | 0.25 | 0.02 | 91 | 1007.3 | |
| 20260507104516 | 47 | 0.0 | 0.0 | 0.00 | 0.25 | 0.02 | 91 | 1007.4 | |
| 20260507103517 | 47 | 0.0 | 0.0 | 0.00 | 0.25 | 0.02 | 91 | 1007.1 | |
| 20260507102516 | 47 | 0.0 | 0.0 | 0.00 | 0.25 | 0.02 | 91 | 1006.8 | |
| 20260507101517 | 47 | 0.0 | 0.0 | 0.00 | 0.25 | 0.02 | 91 | 1006.8 | |
| 20260507100516 | 47 | 0.0 | 1.7 | 0.00 | 0.25 | 0.02 | 90 | 1006.5 | |
| 20260507095516 | 47 | 0.0 | 0.9 | 0.00 | 0.25 | 0.02 | 90 | 1006.6 | |
| 20260507094516 | 47 | 0.0 | 1.7 | 0.00 | 0.25 | 0.02 | 90 | 1006.6 | |
| 20260507093516 | 47 | 338 | 0.9 | 1.7 | 0.00 | 0.25 | 0.02 | 90 | 1007.0 |
| 20260507092516 | 47 | 338 | 0.9 | 2.6 | 0.00 | 0.25 | 0.02 | 90 | 1006.7 |
| 20260507091516 | 47 | 315 | 0.9 | 4.3 | 0.00 | 0.25 | 0.02 | 90 | 1006.9 |
| 20260507090516 | 47 | 315 | 1.7 | 6.1 | 0.00 | 0.25 | 0.02 | 91 | 1007.0 |
| 20260507085516 | 47 | 0.0 | 1.7 | 0.00 | 0.25 | 0.02 | 91 | 1007.2 | |
| 20260507084557 | 47 | 0.0 | 3.5 | 0.00 | 0.25 | 0.02 | 92 | 1006.9 | |
| 20260507083516 | 48 | 0.0 | 0.9 | 0.01 | 0.25 | 0.02 | 92 | 1007.0 | |
| 20260507082516 | 48 | 0.0 | 2.6 | 0.01 | 0.25 | 0.02 | 91 | 1006.6 | |
| 20260507081521 | 48 | 0.0 | 0.9 | 0.01 | 0.25 | 0.02 | 91 | 1006.8 | |
| 20260507080516 | 48 | 0.0 | 2.6 | 0.01 | 0.25 | 0.02 | 91 | 1006.6 | |
| 20260507075517 | 49 | 338 | 0.9 | 2.6 | 0.01 | 0.25 | 0.02 | 90 | 1006.4 |
| 20260507074517 | 49 | 0 | 1.7 | 3.5 | 0.01 | 0.25 | 0.02 | 90 | 1006.6 |
| 20260507073516 | 49 | 203 | 0.9 | 2.6 | 0.00 | 0.24 | 0.01 | 89 | 1006.7 |
| 20260507072518 | 50 | 338 | 0.9 | 2.6 | 0.00 | 0.24 | 0.01 | 89 | 1006.6 |
| 20260507071518 | 50 | 315 | 0.9 | 4.3 | 0.00 | 0.24 | 0.01 | 90 | 1006.1 |
| 20260507070537 | 50 | 0.0 | 2.6 | 0.00 | 0.24 | 0.01 | 91 | 1005.9 | |
| 20260507065519 | 50 | 270 | 1.7 | 3.5 | 0.00 | 0.24 | 0.01 | 91 | 1006.1 |
| 20260507064516 | 51 | 0.0 | 2.6 | 0.00 | 0.24 | 0.01 | 93 | 1005.8 | |
| 20260507063517 | 51 | 0.0 | 1.7 | 0.00 | 0.24 | 0.01 | 93 | 1005.9 | |
| 20260507062516 | 51 | 0.0 | 1.7 | 0.00 | 0.24 | 0.01 | 93 | 1006.0 | |
| 20260507061516 | 51 | 0.0 | 1.7 | 0.00 | 0.24 | 0.01 | 93 | 1005.9 | |
| 20260507060516 | 52 | 0.0 | 1.7 | 0.00 | 0.24 | 0.01 | 94 | 1005.8 | |
| 20260507055517 | 52 | 0.0 | 0.0 | 0.00 | 0.24 | 0.01 | 94 | 1006.1 | |
| 20260507054517 | 52 | 0.0 | 0.0 | 0.00 | 0.24 | 0.01 | 94 | 1006.2 | |
| 20260507053517 | 53 | 315 | 0.9 | 4.3 | 0.00 | 0.24 | 0.01 | 94 | 1006.5 |
| 20260507052538 | 53 | 0.0 | 0.9 | 0.00 | 0.24 | 0.01 | 94 | 1006.6 | |
| 20260507051537 | 53 | 0.0 | 0.0 | 0.00 | 0.24 | 0.01 | 94 | 1006.1 | |
| 20260507050516 | 53 | 0.0 | 0.0 | 0.00 | 0.24 | 0.01 | 93 | 1006.6 | |
| 20260507045537 | 53 | 0.0 | 0.0 | 0.01 | 0.24 | 0.01 | 93 | 1006.5 | |
| 20260507044517 | 53 | 0.0 | 0.0 | 0.01 | 0.24 | 0.01 | 93 | 1006.2 | |
| 20260507043518 | 53 | 23 | 0.9 | 2.6 | 0.02 | 0.24 | 0.01 | 93 | 1006.2 |
| 20260507042516 | 54 | 0.0 | 1.7 | 0.02 | 0.24 | 0.01 | 93 | 1006.1 | |
| 20260507041516 | 54 | 338 | 0.9 | 4.3 | 0.02 | 0.24 | 0.01 | 92 | 1006.2 |
| 20260507040517 | 55 | 293 | 0.9 | 6.1 | 0.02 | 0.24 | 0.01 | 93 | 1006.1 |
| 20260507035517 | 55 | 338 | 2.6 | 7.8 | 0.01 | 0.23 | 0.23 | 93 | 1006.1 |
| 20260507034516 | 56 | 0 | 1.7 | 6.1 | 0.01 | 0.23 | 0.23 | 93 | 1006.0 |
| 20260507033516 | 57 | 293 | 2.6 | 8.7 | 0.00 | 0.22 | 0.22 | 94 | 1006.0 |
| 20260507032516 | 57 | 270 | 1.7 | 6.1 | 0.00 | 0.22 | 0.22 | 94 | 1005.7 |
| 20260507031517 | 58 | 0 | 0.9 | 2.6 | 0.00 | 0.22 | 0.22 | 95 | 1005.4 |
| 20260507030537 | 58 | 0.0 | 4.3 | 0.00 | 0.22 | 0.22 | 95 | 1005.2 | |
| 20260507025517 | 58 | 23 | 0.9 | 2.6 | 0.00 | 0.22 | 0.22 | 95 | 1004.9 |
| 20260507024516 | 58 | 203 | 0.9 | 3.5 | 0.00 | 0.22 | 0.22 | 95 | 1004.9 |
| 20260507023537 | 59 | 203 | 1.7 | 7.8 | 0.00 | 0.22 | 0.22 | 95 | 1005.0 |
| 20260507022537 | 59 | 0.0 | 1.7 | 0.00 | 0.22 | 0.22 | 95 | 1005.1 | |
| 20260507021517 | 58 | 225 | 2.6 | 6.1 | 0.00 | 0.22 | 0.22 | 95 | 1004.9 |
| 20260507020516 | 58 | 0.0 | 1.7 | 0.00 | 0.22 | 0.22 | 95 | 1004.7 | |
| 20260507015517 | 58 | 203 | 0.9 | 3.5 | 0.00 | 0.22 | 0.22 | 95 | 1004.8 |
| 20260507014517 | 58 | 0.0 | 2.6 | 0.00 | 0.22 | 0.22 | 95 | 1004.7 | |
| 20260507013516 | 58 | 158 | 0.9 | 4.3 | 0.00 | 0.22 | 0.22 | 95 | 1004.7 |
| 20260507012517 | 58 | 180 | 0.9 | 7.0 | 0.00 | 0.22 | 0.22 | 95 | 1004.6 |
| 20260507011537 | 58 | 203 | 1.7 | 4.3 | 0.01 | 0.22 | 0.22 | 95 | 1004.7 |
| 20260507010516 | 58 | 203 | 1.7 | 4.3 | 0.01 | 0.22 | 0.22 | 95 | 1004.7 |
| 20260507005517 | 58 | 203 | 1.7 | 7.0 | 0.01 | 0.22 | 0.22 | 95 | 1004.7 |
| 20260507004516 | 58 | 203 | 0.9 | 2.6 | 0.01 | 0.22 | 0.22 | 95 | 1004.8 |
| 20260507003517 | 58 | 225 | 0.9 | 4.3 | 0.01 | 0.22 | 0.22 | 95 | 1004.7 |
| 20260507002516 | 58 | 203 | 0.9 | 4.3 | 0.01 | 0.22 | 0.22 | 95 | 1004.6 |
| 20260507001559 | 58 | 0.0 | 3.5 | 0.00 | 0.21 | 0.21 | 95 | 1004.5 | |
| 20260507000516 | 58 | 225 | 0.9 | 4.3 | 0.00 | 0.21 | 0.21 | 95 | 1004.6 |
| 20260506235517 | 58 | 203 | 1.7 | 3.5 | 0.01 | 0.21 | 0.21 | 95 | 1004.5 |
| 20260506234516 | 58 | 0.0 | 3.5 | 0.04 | 0.21 | 0.21 | 95 | 1004.4 | |
| 20260506233537 | 59 | 203 | 0.9 | 3.5 | 0.04 | 0.21 | 0.21 | 94 | 1004.4 |
| 20260506232516 | 59 | 225 | 0.9 | 2.6 | 0.05 | 0.21 | 0.21 | 94 | 1004.3 |
| 20260506231516 | 59 | 180 | 0.9 | 2.6 | 0.07 | 0.21 | 0.21 | 94 | 1004.4 |
| 20260506230516 | 59 | 225 | 1.7 | 4.3 | 0.08 | 0.21 | 0.21 | 94 | 1004.3 |
| 20260506225537 | 59 | 203 | 0.9 | 4.3 | 0.11 | 0.20 | 0.20 | 94 | 1004.4 |
| 20260506224516 | 59 | 203 | 1.7 | 7.0 | 0.09 | 0.17 | 0.17 | 94 | 1004.4 |
| 20260506223516 | 59 | 203 | 1.7 | 4.3 | 0.09 | 0.17 | 0.17 | 94 | 1004.6 |
| 20260506222516 | 59 | 203 | 1.7 | 4.3 | 0.09 | 0.16 | 0.16 | 94 | 1004.4 |
| 20260506221537 | 59 | 203 | 1.7 | 3.5 | 0.07 | 0.14 | 0.14 | 93 | 1004.6 |
| 20260506220517 | 59 | 203 | 2.6 | 6.1 | 0.06 | 0.13 | 0.13 | 93 | 1004.8 |
| 20260506215516 | 59 | 225 | 1.7 | 5.2 | 0.02 | 0.09 | 0.09 | 93 | 1004.8 |
| 20260506214517 | 59 | 203 | 1.7 | 4.3 | 0.01 | 0.08 | 0.08 | 92 | 1004.9 |
| 20260506213517 | 59 | 225 | 2.6 | 8.7 | 0.01 | 0.08 | 0.08 | 92 | 1004.9 |
| 20260506212516 | 60 | 203 | 1.7 | 4.3 | 0.01 | 0.07 | 0.07 | 92 | 1004.9 |
| 20260506211516 | 60 | 203 | 1.7 | 8.7 | 0.01 | 0.07 | 0.07 | 92 | 1005.1 |
| 20260506210516 | 60 | 203 | 2.6 | 6.1 | 0.02 | 0.07 | 0.07 | 92 | 1005.1 |
| 20260506205517 | 60 | 158 | 0.9 | 3.5 | 0.03 | 0.07 | 0.07 | 92 | 1005.3 |
| 20260506204516 | 60 | 203 | 1.7 | 6.1 | 0.03 | 0.07 | 0.07 | 91 | 1005.4 |
| 20260506203537 | 60 | 180 | 4.3 | 11.3 | 0.03 | 0.07 | 0.07 | 91 | 1005.4 |
| 20260506202517 | 61 | 203 | 2.6 | 8.7 | 0.02 | 0.06 | 0.06 | 91 | 1005.5 |
| 20260506201516 | 61 | 203 | 1.7 | 5.2 | 0.02 | 0.06 | 0.06 | 90 | 1005.5 |
| 20260506200536 | 61 | 225 | 1.7 | 7.0 | 0.02 | 0.05 | 0.05 | 89 | 1005.3 |
| 20260506195516 | 62 | 203 | 3.5 | 7.0 | 0.02 | 0.04 | 0.04 | 88 | 1005.5 |
| 20260506194516 | 62 | 203 | 1.7 | 7.8 | 0.02 | 0.04 | 0.04 | 88 | 1005.5 |
| 20260506193516 | 62 | 180 | 2.6 | 7.8 | 0.03 | 0.04 | 0.04 | 88 | 1005.5 |
| 20260506192517 | 62 | 225 | 2.6 | 7.8 | 0.04 | 0.04 | 0.04 | 88 | 1005.5 |
| 20260506191516 | 62 | 225 | 2.6 | 6.1 | 0.04 | 0.04 | 0.04 | 86 | 1005.6 |
| 20260506190516 | 63 | 180 | 3.5 | 9.6 | 0.03 | 0.03 | 0.03 | 84 | 1005.5 |
| 20260506185517 | 64 | 203 | 0.9 | 3.5 | 0.02 | 0.02 | 0.02 | 84 | 1005.6 |
| 20260506184516 | 65 | 225 | 2.6 | 9.6 | 0.02 | 0.02 | 0.02 | 79 | 1005.8 |
| 20260506183516 | 66 | 203 | 2.6 | 6.1 | 0.01 | 0.01 | 0.01 | 77 | 1006.0 |
| 20260506182517 | 67 | 225 | 2.6 | 7.0 | 0.00 | 0.00 | 0.00 | 73 | 1005.9 |
| 20260506181516 | 68 | 225 | 4.3 | 10.4 | 0.00 | 0.00 | 0.00 | 69 | 1006.2 |
| 20260506180517 | 69 | 225 | 5.2 | 12.2 | 0.00 | 0.00 | 0.00 | 63 | 1006.0 |
| 20260506175517 | 70 | 225 | 7.0 | 18.2 | 0.00 | 0.00 | 0.00 | 60 | 1006.0 |
| 20260506174517 | 71 | 203 | 5.2 | 10.4 | 0.00 | 0.00 | 0.00 | 58 | 1006.0 |
| 20260506173517 | 72 | 203 | 3.5 | 8.7 | 0.00 | 0.00 | 0.00 | 56 | 1005.9 |
| 20260506172537 | 72 | 180 | 4.3 | 9.6 | 0.00 | 0.00 | 0.00 | 56 | 1005.8 |
| 20260506171536 | 73 | 203 | 4.3 | 12.2 | 0.00 | 0.00 | 0.00 | 55 | 1005.9 |
| 20260506170516 | 73 | 225 | 6.1 | 13.0 | 0.00 | 0.00 | 0.00 | 54 | 1006.0 |
| 20260506165517 | 72 | 203 | 4.3 | 9.6 | 0.00 | 0.00 | 0.00 | 55 | 1006.0 |
| 20260506164516 | 72 | 203 | 4.3 | 9.6 | 0.00 | 0.00 | 0.00 | 58 | 1006.2 |
| 20260506163516 | 71 | 203 | 3.5 | 9.6 | 0.00 | 0.00 | 0.00 | 59 | 1006.4 |
| 20260506162517 | 70 | 225 | 4.3 | 12.2 | 0.00 | 0.00 | 0.00 | 59 | 1006.6 |
| 20260506161516 | 70 | 203 | 2.6 | 6.1 | 0.00 | 0.00 | 0.00 | 59 | 1006.7 |
| 20260506160516 | 70 | 203 | 3.5 | 11.3 | 0.00 | 0.00 | 0.00 | 60 | 1006.9 |
| 20260506155516 | 70 | 203 | 3.5 | 7.8 | 0.00 | 0.00 | 0.00 | 61 | 1007.1 |
| 20260506154517 | 70 | 225 | 2.6 | 6.1 | 0.00 | 0.00 | 0.00 | 63 | 1007.2 |